Location: Acequia del Cap
(41.7000°N, 0.6167°E)
Time: 01:13:41
(UTC+00:00)

Meteor 1-22 Rocket - Pass Details

Date: 07 August 2020
Orbit: 787 x 940 km, 81.2° (Epoch: 22 September)

Event Time Altitude Azimuth Distance (km) Brightness Sun altitude
Exits shadow 02:27:30 57° 204° (SSW) 921 4.0 -23.1°
Maximum altitude 02:28:34 81° 279° (W) 802 3.9 -23.0°
Drops below altitude 10° 02:33:53 10° 8° (N) 2,364 7.3 -22.4°
Sets 02:36:17 0° 9° (N) 3,305 8.3 -22.1°
